Location: EverStaR Observatory
(38.9036°N, 94.8303°W)
Time: 17:43:25
(UTC-05:00)

Hubble Space Telescope - Visible Passes

Search period start: 19 March 2019 00:00
Search period end: 29 March 2019 00:00
Orbit: 537 x 540 km, 28.5° (Epoch: 18 March)

Date Brightness Start Highest point End Pass type
(mag) Time Alt. Az. Time Alt. Az. Time Alt. Az.
24 Mar 3.4 21:38:40 10° SSW 21:38:49 11° SSW 21:38:49 11° SSW visible
25 Mar 3.0 21:27:53 10° SW 21:29:10 15° SSW 21:29:10 15° SSW visible
26 Mar 2.7 21:17:11 10° SW 21:19:27 18° S 21:19:27 18° S visible
27 Mar 2.5 21:06:31 10° SW 21:09:28 19° S 21:09:41 19° S visible
28 Mar 2.5 20:55:54 10° SW 20:58:52 19° S 20:59:52 18° SSE visible
